Wind_Speed
12 9 11 11 10 10 9 8 8 7 8 6 8 9 9 8 6 4 2 2 1 2 2 4 4 5 5 5 4 5 8 7 5 7 9 9 8 6 5 6 6 8 10
11 10 13 12 11 11 10 10 10 9 8 7 8 9 9 8 6 4 3 2 0 1 2 3 5 6 6 6 5 3 4 8 9 8 9 9 6 5 5 8 7 9 9
14 13 11 11 12 13 13 11 11 11 10 9 9 9 9 8 6 4 4 4 1 1 1 1 3 5 6 6 5 4 2 3 8 12 11 11 8 6 7 8 9 9 9
12 13 13 10 13 13 13 13 13 13 12 12 11 11 9 8 6 5 5 4 3 3 2 1 1 4 5 5 5 4 3 2 5 10 13 12 9 8 8 8 9 7 7
13 11 10 10 12 13 12 14 14 15 14 14 12 10 9 8 6 6 5 5 5 4 4 3 3 2 2 3 4 4 4 3 5 7 11 13 11 10 9 9 8 9 8
14 15 12 13 14 15 12 13 13 15 15 15 13 10 9 9 8 7 6 6 5 6 6 6 5 4 3 2 2 3 3 2 4 5 8 12 12 11 11 11 9 8 8
13 10 14 15 15 15 14 16 16 15 15 14 14 12 10 9 9 8 7 6 7 7 7 8 7 6 4 3 3 2 2 1 2 5 6 10 11 11 12 12 13 10 9
9 9 12 14 21 24 12 16 18 17 16 16 15 14 12 10 10 10 8 8 8 8 8 9 9 8 7 5 4 4 4 2 1 6 7 8 9 8 9 12 13 13 12
7 8 8 10 11 11 23 23 14 19 17 17 13 14 13 13 12 11 10 9 10 10 10 10 10 10 9 9 7 6 6 5 3 4 7 11 10 9 8 10 11 13 15
6 6 6 7 1 4 13 18 8 12 17 17 13 14 13 13 13 13 12 11 12 11 11 12 11 11 12 12 11 8 8 8 8 6 5 8 12 13 12 10 10 13 15
9 9 8 7 4 4 5 6 11 19 22 20 15 15 15 15 15 13 13 14 13 12 12 13 13 13 14 15 15 12 11 10 10 9 9 8 8 11 14 14 13 13 16
10 10 8 5 5 6 7 10 9 3 9 14 12 12 16 15 15 15 16 16 14 13 14 15 16 17 17 17 18 18 15 13 12 12 12 12 11 11 11 12 15 17 16
11 10 11 5 8 8 9 9 10 9 9 10 14 16 16 18 17 18 18 17 16 16 17 16 15 17 18 19 20 21 21 17 16 15 15 15 14 14 13 13 12 14 17
14 12 11 10 8 9 11 12 11 13 14 15 17 19 19 21 21 20 19 18 15 16 17 15 18 20 18 18 19 23 22 19 17 18 18 18 17 18 17 17 15 15 14
14 14 12 11 11 9 10 13 16 17 15 17 18 17 18 17 19 14 16 22 19 15 17 18 20 18 17 17 17 24 20 19 18 20 21 21 20 20 20 21 20 19 18
17 16 14 14 13 12 12 13 13 16 18 20 19 17 15 17 19 18 19 23 17 17 17 16 15 14 13 13 16 16 18 18 17 19 19 21 22 23 23 23 23 23 23
15 16 16 15 13 13 13 14 16 16 17 19 19 18 17 17 18 18 17 17 15 14 13 12 12 12 11 11 12 14 18 20 18 16 16 18 18 20 23 25 25 26 26
16 16 17 16 15 14 15 15 17 17 17 17 17 17 16 16 15 15 14 14 12 13 12 12 12 11 12 12 13 15 16 18 18 18 18 18 18 19 21 22 24 25 27
18 17 17 17 16 15 16 16 17 17 16 15 14 13 13 12 12 12 10 11 11 11 11 12 12 12 12 12 12 13 14 14 16 17 18 20 21 23 24 25 25 26 27
18 18 17 17 16 16 15 15 14 14 12 11 10 10 10 10 9 10 10 10 10 11 11 11 11 11 10 10 11 12 13 14 15 17 17 18 20 22 23 26 27 28 29
20 18 17 17 15 15 14 12 12 12 11 10 10 9 9 9 9 10 11 11 10 11 11 11 11 10 10 11 11 13 14 14 15 15 16 17 19 20 22 23 24 26 28
19 18 17 15 14 14 13 12 12 11 11 10 10 10 9 10 10 9 10 10 10 11 11 11 11 11 12 12 12 13 14 15 16 15 15 15 16 18 19 21 22 24 26
16 14 14 15 14 13 13 14 13 12 12 12 11 11 10 10 10 10 10 10 11 11 12 12 13 14 15 15 16 17 16 15 16 16 16 16 17 17 18 19 21 23 26
13 12 12 13 13 13 14 15 15 14 13 13 12 12 12 12 11 12 12 12 12 13 13 14 15 15 17 17 17 17 17 19 19 17 17 18 19 21 21 21 23 25 26
13 11 10 9 12 13 15 16 16 15 15 15 14 14 13 13 13 13 13 14 14 16 17 18 19 19 20 20 21 21 21 22 23 23 22 20 22 26 26 26 27 28 29
16 15 13 10 10 12 15 17 17 17 16 16 16 15 15 14 14 14 14 15 17 18 20 21 22 23 24 24 25 26 26 27 28 30 31 29 28 26 29 30 30 31 32
Wind_Direction
256 249 237 219 207 205 207 208 219 215 210 198 178 176 186 190 196 197 227 316 47 90 60 50 38 48 55 69 93 149 183 181 165 151 154 159 159 155 141 144 146 147 136
264 262 224 216 205 214 211 216 223 216 217 206 193 188 195 196 198 220 261 287 274 104 85 75 71 61 64 69 79 114 175 206 208 185 171 172 173 162 149 149 151 150 148
250 255 243 227 209 205 208 218 223 222 216 209 200 202 205 204 202 232 277 286 255 248 333 60 74 75 69 66 67 72 98 197 204 200 187 182 179 170 152 151 151 145 144
238 251 266 253 226 211 214 213 223 221 218 215 211 211 209 217 217 232 262 268 248 245 244 276 39 61 63 61 54 53 56 105 168 191 196 192 190 171 162 167 164 160 153
232 240 249 239 222 221 224 222 219 219 216 218 218 212 207 223 230 251 247 242 245 243 249 261 278 318 12 33 37 34 45 96 131 162 183 192 193 179 179 181 177 172 164
251 246 243 234 227 216 215 221 219 218 216 217 222 220 209 219 230 234 234 231 231 239 249 260 271 284 296 320 347 2 23 71 145 151 169 184 189 192 193 193 189 191 188
258 268 274 272 240 218 223 212 208 214 213 214 216 215 223 232 230 225 226 232 234 238 249 259 271 277 279 285 287 291 335 17 177 174 169 173 185 198 201 201 204 207 203
272 268 244 263 288 278 233 227 204 202 208 205 207 216 226 229 227 228 229 229 232 241 252 258 267 272 273 267 256 249 253 263 207 200 194 183 186 195 208 205 204 206 206
271 276 265 246 269 326 283 216 196 203 205 202 205 223 221 225 224 227 227 230 232 238 245 255 259 266 269 267 258 245 236 233 235 219 211 212 213 210 209 214 214 204 201
279 282 278 244 258 354 337 219 220 211 215 214 198 233 234 236 235 232 234 237 245 247 250 252 257 260 264 266 264 257 249 240 237 238 238 224 222 223 223 225 223 212 206
280 281 280 272 244 220 87 184 240 292 219 223 213 227 232 238 241 244 247 248 249 252 256 261 263 262 261 264 267 261 251 245 243 242 241 244 240 233 231 232 233 232 227
281 285 285 269 239 230 210 211 239 287 220 239 244 239 244 243 249 249 253 256 254 256 261 261 261 260 262 265 264 264 259 249 243 243 243 244 243 244 242 238 236 238 238
286 285 282 265 234 226 222 223 234 228 222 237 248 255 256 252 246 247 252 256 258 268 266 262 264 266 265 264 263 258 258 256 253 251 249 249 249 246 248 247 247 245 243
283 284 282 280 259 242 243 244 241 234 235 247 252 255 261 260 248 251 252 254 266 273 265 266 267 274 271 262 256 262 250 258 257 256 254 254 252 252 253 251 250 248 250
277 277 277 274 271 258 240 231 233 234 237 241 250 258 259 248 238 244 255 263 258 260 268 272 272 273 273 264 265 259 254 260 264 260 256 254 253 253 254 255 253 252 250
275 274 271 265 262 258 252 241 240 240 243 247 255 254 252 244 242 249 254 261 266 269 272 270 271 271 266 266 265 264 252 279 272 261 257 258 257 255 254 253 253 254 254
278 273 268 261 255 255 251 251 250 248 247 249 253 254 253 249 249 252 255 260 263 266 261 265 265 268 270 270 268 265 258 260 265 266 261 258 258 259 259 258 256 258 258
271 266 266 266 260 254 255 254 260 260 252 248 245 247 248 248 252 252 251 254 249 248 253 259 264 268 273 275 274 269 265 266 267 267 266 267 267 265 263 264 264 264 264
268 266 263 262 261 259 259 259 257 254 249 243 240 235 232 231 230 236 235 235 243 249 253 260 265 268 269 268 269 270 272 274 275 274 274 272 270 268 268 268 268 269 270
267 265 263 260 257 263 263 261 253 242 232 225 216 214 217 221 226 232 241 248 251 257 261 263 262 262 265 270 275 281 286 286 285 283 281 277 274 272 271 271 271 270 270
263 264 259 254 254 256 256 248 234 218 209 210 216 223 231 238 245 248 253 256 257 258 257 259 263 264 268 273 280 285 287 287 284 281 280 278 278 278 277 278 277 275 273
255 255 253 251 253 253 249 235 220 218 218 220 226 231 239 249 250 251 254 257 256 258 261 262 266 271 274 277 279 279 284 287 288 289 286 282 280 280 281 282 282 281 279
253 253 248 243 247 246 236 224 222 228 230 233 237 244 247 250 255 257 259 260 263 264 265 266 268 272 276 278 281 283 283 280 281 286 286 286 287 284 283 284 285 284 281
241 246 255 250 253 247 238 232 232 237 243 245 246 248 252 254 257 262 265 268 271 272 272 272 272 272 276 280 281 281 280 280 279 280 288 291 293 293 292 290 288 286 283
218 227 237 251 251 247 241 241 239 242 250 254 255 256 258 260 263 267 273 277 277 277 278 279 280 281 282 283 284 285 286 284 282 280 273 279 291 293 292 292 291 289 287
217 229 241 253 262 258 250 247 246 247 248 252 256 256 258 260 263 267 272 277 283 286 285 283 281 282 283 282 283 283 282 284 285 286 284 284 282 284 291 292 291 288 286
Height
3159 3158 3159 3160 3162 3163 3164 3164 3165 3166 3166 3167 3166 3167 3169 3170 3171 3172 3172 3172 3171 3171 3171 3171 3171 3171 3171 3170 3171 3171 3171 3171 3172 3173 3174 3176 3176 3177 3177 3178 3179 3180 3181
3159 3158 3158 3159 3160 3162 3163 3164 3164 3166 3166 3167 3167 3168 3169 3170 3170 3171 3171 3171 3171 3171 3171 3172 3171 3171 3171 3171 3171 3171 3171 3171 3172 3173 3174 3175 3176 3177 3178 3178 3180 3180 3181
3156 3156 3156 3158 3159 3160 3161 3163 3164 3164 3166 3167 3167 3168 3169 3169 3170 3170 3171 3171 3171 3172 3172 3172 3172 3172 3172 3171 3171 3171 3170 3170 3170 3172 3173 3175 3176 3177 3177 3179 3180 3180 3181
3154 3155 3156 3156 3157 3159 3159 3161 3162 3163 3165 3166 3167 3168 3169 3169 3170 3170 3170 3171 3171 3171 3172 3172 3172 3172 3172 3172 3171 3171 3170 3170 3170 3171 3172 3174 3175 3177 3178 3179 3179 3180 3181
3151 3153 3154 3153 3154 3156 3158 3160 3162 3162 3163 3164 3165 3166 3168 3168 3169 3169 3170 3170 3170 3171 3171 3171 3172 3172 3172 3172 3172 3171 3171 3170 3170 3170 3171 3173 3174 3176 3177 3179 3180 3180 3181
3149 3150 3151 3151 3153 3153 3154 3156 3159 3161 3162 3164 3164 3165 3166 3166 3168 3168 3169 3170 3170 3170 3170 3171 3171 3172 3173 3172 3172 3172 3171 3171 3170 3170 3171 3172 3173 3175 3176 3178 3179 3179 3181
3149 3151 3152 3155 3154 3153 3153 3153 3154 3158 3160 3161 3163 3163 3165 3166 3166 3167 3168 3168 3169 3169 3169 3170 3170 3171 3171 3172 3172 3172 3171 3171 3171 3171 3171 3171 3173 3174 3175 3175 3177 3179 3180
3149 3151 3151 3154 3155 3150 3151 3151 3150 3153 3155 3158 3160 3161 3163 3164 3165 3166 3167 3167 3168 3168 3168 3168 3168 3169 3169 3170 3171 3171 3171 3171 3171 3171 3171 3172 3172 3173 3174 3174 3175 3177 3178
3146 3149 3149 3150 3149 3147 3143 3136 3144 3151 3153 3155 3156 3159 3160 3160 3163 3164 3165 3165 3166 3167 3167 3168 3167 3167 3168 3168 3169 3169 3170 3170 3170 3171 3171 3171 3172 3172 3173 3173 3174 3175 3176
3143 3144 3146 3147 3146 3144 3141 3141 3145 3150 3153 3153 3153 3157 3159 3160 3161 3162 3162 3163 3164 3165 3165 3166 3166 3166 3166 3166 3167 3168 3168 3169 3169 3170 3170 3170 3170 3171 3171 3173 3173 3174 3175
3140 3139 3141 3143 3144 3143 3141 3143 3145 3147 3150 3151 3153 3155 3156 3158 3159 3160 3161 3161 3161 3162 3163 3164 3164 3164 3164 3165 3164 3165 3166 3167 3167 3168 3168 3169 3169 3169 3170 3170 3172 3173 3174
3138 3138 3139 3139 3140 3141 3140 3141 3144 3144 3145 3147 3148 3150 3153 3155 3156 3157 3158 3159 3159 3159 3160 3160 3161 3161 3161 3162 3162 3162 3163 3164 3165 3165 3166 3166 3167 3168 3168 3169 3169 3170 3171
3136 3137 3136 3137 3138 3138 3139 3141 3142 3143 3145 3146 3147 3150 3151 3151 3152 3153 3154 3155 3156 3157 3157 3157 3157 3157 3158 3158 3158 3159 3160 3161 3162 3163 3163 3163 3164 3165 3166 3166 3167 3167 3168
3132 3133 3136 3136 3136 3136 3136 3136 3139 3141 3143 3144 3145 3146 3146 3148 3149 3150 3150 3151 3152 3153 3154 3154 3154 3153 3153 3153 3154 3155 3156 3156 3157 3159 3159 3160 3161 3162 3163 3164 3164 3164 3165
3129 3129 3130 3133 3135 3134 3135 3134 3136 3137 3139 3140 3141 3141 3141 3143 3145 3146 3147 3148 3148 3149 3150 3151 3150 3149 3149 3149 3150 3150 3151 3152 3152 3154 3155 3156 3156 3157 3159 3160 3161 3161 3162
3127 3126 3126 3127 3129 3131 3131 3132 3132 3133 3134 3135 3137 3137 3138 3139 3140 3142 3143 3145 3144 3145 3145 3145 3145 3146 3145 3145 3146 3146 3147 3147 3147 3149 3149 3150 3151 3152 3154 3155 3156 3157 3158
3125 3125 3124 3124 3123 3125 3127 3128 3129 3129 3130 3131 3132 3134 3134 3136 3137 3138 3138 3139 3139 3141 3141 3141 3141 3142 3143 3142 3142 3143 3144 3145 3144 3144 3145 3145 3146 3147 3148 3149 3150 3151 3152
3122 3121 3123 3124 3122 3122 3123 3124 3124 3124 3125 3126 3128 3129 3129 3131 3132 3134 3134 3136 3136 3137 3137 3138 3138 3138 3138 3138 3139 3140 3140 3140 3140 3140 3140 3141 3141 3142 3143 3143 3144 3145 3146
3119 3118 3118 3119 3121 3120 3120 3121 3120 3120 3120 3121 3123 3124 3126 3127 3128 3130 3131 3132 3134 3135 3134 3135 3135 3135 3136 3136 3136 3136 3136 3136 3136 3135 3135 3136 3136 3137 3138 3138 3138 3139 3140
3115 3115 3116 3116 3115 3118 3117 3118 3118 3118 3118 3119 3119 3121 3123 3124 3125 3126 3128 3129 3129 3131 3131 3132 3132 3132 3133 3133 3133 3132 3132 3131 3130 3130 3130 3130 3131 3131 3132 3132 3132 3133 3133
3110 3110 3111 3112 3113 3112 3113 3113 3116 3116 3116 3117 3118 3119 3121 3122 3122 3123 3125 3126 3126 3127 3128 3128 3128 3129 3130 3130 3129 3128 3128 3127 3127 3126 3126 3125 3125 3125 3125 3125 3126 3127 3127
3106 3106 3106 3108 3108 3109 3110 3110 3113 3115 3115 3116 3117 3117 3118 3120 3120 3121 3122 3123 3123 3124 3124 3124 3124 3124 3126 3126 3125 3125 3124 3125 3122 3122 3121 3121 3120 3120 3119 3119 3119 3119 3119
3104 3104 3104 3105 3105 3107 3107 3108 3110 3113 3114 3114 3115 3116 3116 3116 3118 3118 3119 3119 3120 3120 3120 3120 3120 3120 3120 3121 3121 3121 3120 3119 3119 3117 3117 3116 3115 3115 3114 3114 3113 3112 3112
3101 3102 3102 3103 3104 3104 3106 3106 3106 3109 3111 3112 3112 3113 3113 3114 3114 3115 3116 3116 3116 3117 3117 3117 3116 3116 3116 3115 3115 3115 3114 3114 3114 3114 3113 3112 3111 3109 3107 3107 3107 3106 3105
3096 3098 3099 3100 3101 3103 3104 3105 3104 3105 3108 3108 3109 3109 3110 3110 3110 3111 3111 3112 3112 3112 3111 3111 3111 3110 3110 3109 3108 3108 3108 3107 3107 3106 3107 3108 3105 3103 3102 3101 3099 3098 3097
3093 3095 3096 3097 3099 3100 3102 3103 3102 3102 3104 3104 3105 3105 3106 3106 3106 3106 3106 3107 3107 3107 3107 3106 3105 3104 3103 3102 3102 3101 3101 3100 3098 3097 3096 3098 3098 3098 3095 3093 3092 3090 3089